#timestamp,LO_Frequency,Hit,StdDev 
1585227615.5,286046999.3,N
1585227635.3,286046998.2,N
1585227655.2,286047000.6,N
1585227675.0,286047001.2,N
1585227675.9,286047001.2,N
1585227695.8,286047000.6,N
1585227715.6,286047000.1,N
1585227735.4,286047000.8,N
1585227755.3,286046998.4,N
1585227775.1,286046999.4,N
1585227795.8,286046998.1,N
1585227815.7,286046998.3,N
1585227835.5,286046996.5,N
1585227855.4,286046999.5,N
1585227875.2,286046997.8,N
1585227895.0,286046998.6,N
1585227895.9,286046998.6,N
1585227915.8,286046997.3,N
1585227935.6,286046997.3,N
1585227955.5,286046995.4,Y
1585227975.3,286046997.9,P
1585227995.1,286046995.9,P
1585228015.9,286046995.2,P
1585228035.7,286046995.7,N
1585228055.5,286046998.0,N
1585228075.4,286046995.4,Y
1585228095.2,286046999.0,P
1585228115.1,286046999.5,N
1585228116.0,286046999.5,N
1585228135.8,286046997.1,N
1585228155.6,286046996.7,N
1585228175.5,286046999.0,N
1585228195.3,286046996.6,N
1585228215.2,286046997.6,N
1585228235.9,286046995.9,Y
1585228255.7,286046997.8,P
1585228275.6,286046997.4,P
1585228295.4,286046996.5,P
1585228315.3,286046999.1,N
1585228335.1,286046996.7,Y
1585228336.0,286046996.7,P
1585228355.8,286047001.5,N
1585228375.7,286047002.7,N
1585228395.5,286046999.9,N
1585228415.3,286047002.5,N
1585228435.2,286047001.1,N
1585228455.0,286046997.0,N
1585228455.9,286046997.0,N
1585228475.8,286046997.8,N
1585228495.6,286046994.9,N
1585228515.4,286046995.9,N
1585228535.3,286046995.2,N
1585228555.1,286046996.0,N
1585228575.9,286046996.0,N
1585228595.7,286046994.1,N
1585228615.5,286046993.6,N
1585228635.4,286046995.7,N
1585228655.2,286046997.4,N
1585228675.0,286046999.5,N
1585228675.9,286046999.5,N
1585228695.8,286046999.1,N
1585228715.6,286046999.6,N
1585228735.5,286046999.0,N
1585228755.3,286046999.3,N
1585228775.1,286046999.6,N
1585228795.9,286046999.3,N
1585228815.7,286046999.5,N
1585228835.6,286046996.8,N
1585228855.4,286046996.9,N
1585228875.2,286046999.4,N
1585228895.1,286046998.4,N
1585228896.0,286046998.4,N
1585228915.8,286046998.6,N
1585228935.7,286046998.3,N
1585228955.5,286047001.2,N
1585228975.3,286047000.2,N
1585228995.2,286047000.4,N
1585229015.0,286047002.4,N
1585229015.9,286047002.4,N
1585229035.8,286047002.2,N
1585229055.6,286047000.4,N
1585229075.4,286047015.6,Y
1585229095.3,286047017.5,P
1585229115.1,286047016.2,N
1585229135.8,286047011.9,N
1585229155.7,286047010.3,N
1585229175.5,286047007.1,N
1585229225.4,286047005.6,E
1585229235.3,286047001.3,N
1585229255.2,286046998.3,P
1585229275.9,286047000.1,N
1585229295.7,286047003.6,N
1585229315.6,286047004.8,N
1585229335.4,286047005.0,N
1585229355.2,286047003.3,N
1585229375.1,286047005.9,N
1585229376.0,286047005.9,N
1585229425.8,286047006.0,E
1585229435.8,286047000.1,N
1585229455.6,286046997.4,P
1585229475.4,286046997.7,N
1585229495.3,286046996.2,Y
1585229515.1,286046993.8,P
1585229535.9,286046994.3,N
1585229555.7,286046994.8,N
1585229575.5,286046998.0,N
1585229595.4,286047000.2,N
1585229615.2,286046999.6,N
1585229635.1,286046995.9,N
1585229636.0,286046995.9,N
1585229655.8,286046993.2,Y
1585229675.6,286046995.9,P
1585229695.5,286046992.7,P
1585229715.3,286046988.7,P
1585229735.2,286046987.1,Y
1585229755.0,286046996.2,P
1585229755.9,286046996.2,N
1585229775.8,286046993.5,P
1585229795.6,286046991.9,Y
1585229815.4,286046996.8,P
1585229835.3,286046995.8,P
1585229855.1,286046994.6,P
1585229875.9,286046990.6,Y
1585229895.7,286046995.4,P
1585229915.5,286046997.8,P
1585229935.4,286046996.6,P
1585229955.2,286046999.6,N
1585229975.1,286046996.7,N
1585229976.0,286046996.7,N
1585229995.8,286046996.7,N
1585230015.6,286046997.2,N
1585230035.5,286046997.9,N
1585230055.3,286046996.9,N
1585230075.2,286047001.0,N
1585230095.0,286047000.7,N
1585230095.9,286047000.7,N
1585230115.8,286046996.6,N
1585230135.6,286046996.6,N
1585230155.4,286047001.2,N
1585230175.3,286047000.0,N
1585230195.1,286047001.2,N
1585230215.8,286047001.9,N
1585230235.7,286047002.4,N
1585230255.5,286046999.8,N
1585230275.4,286047001.5,N
1585230295.2,286047005.2,N
1585230315.0,286047005.0,N
1585230315.9,286047005.0,N
1585230335.8,286047006.7,N
1585230355.6,286047009.1,N
1585230375.5,286047008.4,N
1585230395.3,286047007.7,N
1585230415.1,286047008.5,N
1585230435.9,286047007.1,N
1585230455.7,286047010.8,N
1585230475.6,286047008.3,N
1585230495.4,286047006.5,N
1585230515.2,286047007.8,N
1585230535.1,286047010.1,N
1585230536.0,286047010.1,N
1585230555.8,286047012.1,N
1585230575.6,286047008.1,N
1585230595.5,286047009.5,N
1585230615.3,286047012.0,N
1585230635.2,286047011.3,N
1585230655.9,286047012.6,N
1585230675.7,286047013.7,Y
1585230695.6,286047006.2,P
1585230715.4,286047009.2,P
1585230735.3,286047005.0,P
1585230755.1,286047004.8,Y
1585230756.0,286047004.8,P
1585230775.8,286046998.4,N
1585230795.7,286047000.0,N
1585230815.5,286047002.1,N
1585230835.3,286047001.8,N
1585230855.2,286047004.4,N
1585230875.0,286047002.1,N
1585230875.9,286047002.1,N
1585230895.8,286047002.3,N
1585230915.6,286047003.1,N
1585230935.4,286047004.7,N
1585230955.3,286047006.0,N
1585230975.1,286047003.2,N
1585230995.9,286047001.3,N
1585231015.7,286047005.8,N
1585231035.5,286047001.8,N
1585231055.4,286047003.9,N
1585231075.2,286047004.3,N
1585231095.0,286046999.7,N
1585231095.9,286046999.7,N
1585231115.8,286047002.5,N
1585231135.6,286047001.8,N
1585231155.5,286047001.3,N
1585231175.3,286047003.1,N
1585231195.1,286047001.3,N
